STARLINK-1337, 45582

Orbit data source: Space-Track

STARLINK-1337, 45582 is a payload satellite owned by SpaceX/Seattle (US) in LEO that was launched on Wed, 22 Apr 2020 UTC via an FALCON 9 launch vehicle from the Air Force Eastern Test Range (AFETR). Payload-class satellites include a variety of spacecraft equipped with specific instruments for various scientific and technological missions. These include communications satellites like Starlink; space stations such as the ISS; scientific satellites like the Hubble; Earth observation satellites from companies like Planet Labs, Umbra, and HawkEye 360; GPS; miniature CubeSats for education and research; and military/defense satellites.

Loading next visibility...
Identifier
45582, 2020-025BD
Orbit
LEO
Country
Flag of USUS
Related business
Manufacturer
SpaceX/Seattle
Mission
Partially operational Commercial Communications
Bus & Motor
STARLINK, Unknown motor
Mass
260 kg wet, ~248 kg dry
Launch date (UTC)
2020-04-22 (6 years ago)
Launch vehicle
FALCON 9
Launch site
Air Force Eastern Test Range (AFETR)
Object type
Payload
Rocket body
Debris
Shape & HBR
Box + 1 Pan, 10.1 m
Radar Cross Section
13.562 m², Large (>1 m²)

Expand to show TLE details & history
Last TLE update: 10 hours ago

TLE from 10 hours ago
0 STARLINK-1337
1 45582U 20025BD  26170.55314530  .00066031  00000-0  41234-3 0  9998
2 45582  53.0437 279.7734 0002430 102.7702 257.3589 15.76276999341698
Epoch: 2026-06-19T13:16Z
TLE epoch observation values (Epoch: 2026-06-19T13:16:31.753Z)
Latitude
-0.00003°
Longitude
172.8606°
Altitude
342.262 km
Speed
7.704 km/s
True Right ascension
18h 39m 05s
True Declination
0° 00' 00"
Sunlit
Object was in full shadow at epoch
Visualization orbit readout
Latitude
Unknown
Longitude
Unknown
Altitude
Unknown
Speed
Unknown
Apparent Right ascension
Unknown
Apparent Declination
Unknown
Sunlit
N/A
Visualization observer readout
Local Sidereal Time
09:55:48
Azimuth
Unknown
Elevation
Unknown
Doppler factor
Unknown
Orbital elements
Apogee altitude
342.913 km
Perigee altitude
339.648 km
Semi-major axis
6,719.417 km
Eccentricity
0.00024
Inclination
53.0437°
RAAN
279.7734°
Arg. of periapsis
102.7702°
True anomaly
257.33173°
Mean anomaly
257.3589°
Eccentric anomaly
257.34532°
Mean motion
3.94045 °/min
Orbital period
91.36 mins
BSTAR
0.00041234
Loading maneuver chart data...
Computing Atmospheric mass density...

Documentation

Showing up to 5 results
|